Regional Weather Roundup
Issued by NWS

Home | Current Version | Previous Version | Graphics & Text | Print | Product List | Glossary On
Versions: 1 2 3 4 5 6 7 8 9 10 11 12 13 14 15 16 17 18 19 20 21 22 23 24 25 26 27 28 29 30 31 32 33 34 35 36 37 38 39 40 41 42 43 44 45 46 47 48 49 50
000
ASUS43 KMPX 280801
RWRMN
WEATHER ROUNDUP FOR MINNESOTA
NATIONAL WEATHER SERVICE TWIN CITIES/CHANHASSEN MN
300 AM CDT SUN AUG 28 2016


NOTE: "FAIR" INDICATES FEW OR NO CLOUDS BELOW 12,000 FEET WITH NO
SIGNIFICANT WEATHER AND/OR OBSTRUCTIONS TO VISIBILITY. N/A MEANS
CURRENT SKY AND/OR WEATHER CONDITIONS ARE NOT AVAILABLE.

MNZ060>063-068>070-280900-
   Twin Cities Metro

CITY           SKY/WX    TMP DP  RH WIND       PRES   REMARKS
TWIN CITIES    CLEAR     62  60  93 E6        30.09S
ST PAUL        FOG       62  62 100 CALM      30.10R VSB 1/4
CRYSTAL        FOG       57  55  93 CALM      30.08S VSB 1/4
BLAINE         FOG       63  63 100 CALM      30.09S VSB 3/4
LAKEVILLE      FOG       55  55 100 CALM      30.10R VSB 1
EDEN PRAIRIE   CLEAR     62  59  90 S5        30.07S FOG
LAKEVILLE      FOG       55  55 100 CALM      30.10R VSB 1
SOUTH ST PAUL  FOG       62  62  99 CALM      30.10R VSB<1/4
LAKE ELMO      FOG       59  59 100 CALM      30.11S VSB 3/4
$$
MNZ001>005-007-008-013>017-022>024-027-028-280900-
   Northwest Minnesota

CITY           SKY/WX    TMP DP  RH WIND       PRES   REMARKS
BEMIDJI        FOG       54  54 100 CALM      30.05R VSB 1/4
HALLOCK        CLEAR     55  54  94 SE7       29.97S
ROSEAU         CLEAR     54  48  82 CALM      30.01S
WARROAD        CLEAR     54  50  87 CALM      30.02S
THIEF RVR FALL CLEAR     52  51  97 SE6       30.02R
CROOKSTON      CLEAR     55  54  94 S7        30.00S
FOSSTON        CLEAR     54  54 100 SE3       30.03S
DETROIT LAKES  CLOUDY    61  59  94 SE7       30.04S
MOORHEAD       CLEAR     59  57  94 SE6       30.00F
PARK RAPIDS    FOG       59  57  93 SE7       30.05S VSB 3/4
MAHNOMEN       FAIR      57  56  96 SE7       30.02S
$$
MNZ006-009>011-018-025>026-280900-
   North Central Minnesota

CITY           SKY/WX    TMP DP  RH WIND       PRES   REMARKS
BAUDETTE       CLOUDY    51  50  96 CALM      30.03R
FLAG ISLAND    PTCLDY    61  59  94 CALM      30.01R FOG
INTL FALLS     PTCLDY    52  50  93 CALM      30.05R
WASKISH        CLEAR     57  55  94 CALM      30.04S
BIG FORK       CLOUDY    57  55  94 S6        30.07S FOG
LONGVILLE      CLOUDY    59  57  94 S5        30.07S
GRAND RAPIDS   FOG       57  57 100 SE5       30.10R VSB 1/2
ORR            CLEAR     52  48  87 CALM      30.05S
COOK           CLEAR     48  46  93 CALM      30.09R FOG
WALKER         CLOUDY    59  57  96 S5        30.05S
$$
MNZ012-019>021-037-280900-
   Northeast Minnesota

CITY           SKY/WX    TMP DP  RH WIND       PRES   REMARKS
DULUTH         FOG       56  56 100 CALM      30.09S VSB 1/8
ELY            MOCLDY    54  54 100 SW5       30.09R
HIBBING        CLOUDY    51  51 100 CALM      30.09S
EVELETH        CLOUDY    53  52  97 CALM      30.11R
DULUTH HARBOR  MOCLDY    61  57  88 W5        30.10R
TWO HARBORS    FOG       61  57  88 CALM      30.08R VSB 3/4
SILVER BAY     CLOUDY    61  59  94 CALM      30.08R
G MARAIS ARPRT CLOUDY    54  52  94 CALM      30.10R FOG
$$
MNZ029>031-032-039>041-046>048-054>057-064-280900-
   West Central Minnesota

CITY           SKY/WX    TMP DP  RH WIND       PRES   REMARKS
FERGUS FALLS   PTCLDY    63  61  94 S12       30.04R
WHEATON        CLOUDY    63  61  94 SE9       30.03R
MORRIS         CLOUDY    61  61 100 SE5       30.03R
ALEXANDRIA     FOG       59  58  96 SE5       30.07R VSB 1
ELBOW LAKE     FAIR      60  59  96 SE10      30.03R
WADENA         FOG       57  57 100 SE7       30.04F VSB 3/4
GLENWOOD       DRZL/FOG  57  57 100 SE3       30.07R VSB 1/4
APPLETON       CLOUDY    63  59  88 SE6       30.03R
BENSON         CLOUDY    63  57  82 S5        30.06R
ORTONVILLE     CLOUDY    63  59  88 SE7       30.02R THUNDER
MADISON        CLOUDY    63  61  94 SE8       30.04R
WILLMAR        FAIR      61  61 100 SE3       30.08R
$$
MNZ033>034-036-042>043-049>051-058-059-280900-
   Central Minnesota

CITY           SKY/WX    TMP DP  RH WIND       PRES   REMARKS
ST CLOUD       FOG       61  61 100 E5        30.08F VSB 1/4
SAUK CENTRE    FOG       59  59 100 E3        30.07S VSB 1/2
PAYNESVILLE    CLOUDY    61  61 100 SE5       30.08R FOG
AITKIN         FOG       55  52  88 CALM      30.07S VSB 1/4
PINE RIVER     CLOUDY    61  61 100 S5        30.10S
BRAINERD       CLOUDY    59  58  96 S5        30.08S FOG
STAPLES        FOG       57  57 100 SE5       30.06S VSB 1
LONG PRAIRIE   FOG       59  59 100 E5        30.07S VSB 1/4
LITTLE FALLS   FOG       57  55  94 SE5       30.08F VSB 1/4
LITCHFIELD     DRZL/FOG  61  61 100 SE5       30.07F VSB 1/2
BUFFALO        PTCLDY    57  55  95 CALM      30.09S
MAPLE LAKE     CLOUDY    62  62  98 E3        30.09F FOG
HUTCHINSON       N/A     60  60 100 CALM      30.08F FOG
$$
MNZ037-044-045-052-053-280900-
   East Central Minnesota

CITY           SKY/WX    TMP DP  RH WIND       PRES   REMARKS
PRINCETON      CLOUDY    63  61  94 CALM      30.09F FOG
MORA           CLOUDY    59  57  94 CALM      30.11S
CAMBRIDGE      CLOUDY    64  61  88 CALM      30.08F FOG
RUSH CITY      LGT RAIN  61  60  97 SE3       30.11S
MOOSE LAKE     CLOUDY    59  57  94 CALM      30.08R
HINCKLEY       FOG       59  59 100 CALM      30.11R VSB 3/4
CLOQUET        CLOUDY    59  57  94 CALM      30.09S FOG
MCGREGOR       CLOUDY    59  57  94 S5        30.09S VSB 1/2
$$
MNZ071>073-080-081-089-090-097-098-280900-
   Southwest Minnesota

CITY           SKY/WX    TMP DP  RH WIND       PRES   REMARKS
MONTEVIDEO     CLOUDY    63  63 100 S6        30.07R THUNDER
GRANITE FALLS  MOCLDY    63  61  94 SE7       30.07R THUNDER
CANBY          CLOUDY    64  62  92 E8        30.05R THUNDER
MARSHALL       CLOUDY    63  62  97 SE6       30.06R
REDWOOD FALLS  CLEAR     62  59  90 S8        30.05F
OLIVIA         CLEAR     61  59  94 SE5       30.06R
PIPESTONE      CLEAR     64  63  94 SE9       30.05F
WINDOM         CLEAR     63  61  94 SE6       30.07F
WORTHINGTON    CLEAR     60  59  96 SE7       30.07F FOG
JACKSON          N/A     63  59  88 SE6       30.09F FOG
TRACY          CLEAR     64  62  93 S7        30.05F FOG
SLAYTON        CLEAR     57  57 100 SE7       30.07F
$$
MNZ065>067-074>077-082>085-091>093-280900-
   South Central Minnesota

CITY           SKY/WX    TMP DP  RH WIND       PRES   REMARKS
MANKATO        CLEAR     63  59  88 SE5       30.08S
NEW ULM          N/A     61  61 100 SE6       30.06F FOG
ST JAMES       CLEAR     57  57 100 SE6       30.08F FOG
FAIRMONT       FOG       57  57 100 SE3       30.09F VSB 1/4
GLENCOE        CLEAR     61  61 100 CALM      30.07F
FARIBAULT      MOCLDY    57  55  94 CALM      30.10S FOG
OWATONNA       CLEAR     63  61  94 CALM      30.11R FOG
WASECA         CLEAR     59  57  94 SE5       30.11S FOG
ALBERT LEA       N/A     63  61  94 S3        30.11S FOG
$$
MNZ078>079-086>088-094>096-280900-
   Southeast Minnesota

CITY           SKY/WX    TMP DP  RH WIND       PRES   REMARKS
ROCHESTER      FOG       60  60 100 S3        30.13R VSB 1/4
RED WING       FOG       61  59  94 CALM      30.09S VSB 3/4
DODGE CENTER   FOG       61  59  94 SE3       30.11F VSB 1/4
WINONA         MOCLDY    63  61  94 CALM      30.11S
AUSTIN         FOG       63  63 100 S3        30.12R VSB 1/2
PRESTON        FOG       63  61  95 S5        30.13S VSB 3/4
$$
ABBREVIATIONS USED IN REMARKS
   TC - TEMPERATURES IN CELSIUS
  WCI - WIND CHILL INDEX
   HX - HEAT INDEX
  VSB - VISIBILITY
$$



USA.gov is the U.S. government's official web portal to all federal, state and local government web resources and services.